Index of /20260414/WXO-DD/model_rdps/10km/12/016
Name Last modified Size Description
Parent Directory -
20260414T12Z_MSC_RDPS_AbsoluteVorticity_IsbL-0250_RLatLon0.09_PT016H.grib2 2026-04-14 14:44 607K
20260414T12Z_MSC_RDPS_AbsoluteVorticity_IsbL-0500_RLatLon0.09_PT016H.grib2 2026-04-14 14:44 563K
20260414T12Z_MSC_RDPS_AbsoluteVorticity_IsbL-0700_RLatLon0.09_PT016H.grib2 2026-04-14 14:44 619K
20260414T12Z_MSC_RDPS_AbsoluteVorticity_IsbL-0850_RLatLon0.09_PT016H.grib2 2026-04-14 14:44 780K
20260414T12Z_MSC_RDPS_AirTemp_AGL-120m_RLatLon0.09_PT016H.grib2 2026-04-14 14:44 390K
20260414T12Z_MSC_RDPS_AirTemp_AGL-2m_RLatLon0.09_PT016H.grib2 2026-04-14 14:44 626K
20260414T12Z_MSC_RDPS_AirTemp_AGL-40m_RLatLon0.09_PT016H.grib2 2026-04-14 14:44 404K
20260414T12Z_MSC_RDPS_AirTemp_AGL-80m_RLatLon0.09_PT016H.grib2 2026-04-14 14:44 396K
20260414T12Z_MSC_RDPS_AirTemp_IsbL-0001_RLatLon0.09_PT016H.grib2 2026-04-14 14:44 295K
20260414T12Z_MSC_RDPS_AirTemp_IsbL-0005_RLatLon0.09_PT016H.grib2 2026-04-14 14:44 251K
20260414T12Z_MSC_RDPS_AirTemp_IsbL-0010_RLatLon0.09_PT016H.grib2 2026-04-14 14:44 337K
20260414T12Z_MSC_RDPS_AirTemp_IsbL-0020_RLatLon0.09_PT016H.grib2 2026-04-14 14:44 352K
20260414T12Z_MSC_RDPS_AirTemp_IsbL-0030_RLatLon0.09_PT016H.grib2 2026-04-14 14:44 376K
20260414T12Z_MSC_RDPS_AirTemp_IsbL-0050_RLatLon0.09_PT016H.grib2 2026-04-14 14:44 326K
20260414T12Z_MSC_RDPS_AirTemp_IsbL-0100_RLatLon0.09_PT016H.grib2 2026-04-14 14:44 393K
20260414T12Z_MSC_RDPS_AirTemp_IsbL-0150_RLatLon0.09_PT016H.grib2 2026-04-14 14:44 436K
20260414T12Z_MSC_RDPS_AirTemp_IsbL-0175_RLatLon0.09_PT016H.grib2 2026-04-14 14:44 432K
20260414T12Z_MSC_RDPS_AirTemp_IsbL-0200_RLatLon0.09_PT016H.grib2 2026-04-14 14:44 409K
20260414T12Z_MSC_RDPS_AirTemp_IsbL-0225_RLatLon0.09_PT016H.grib2 2026-04-14 14:44 412K
20260414T12Z_MSC_RDPS_AirTemp_IsbL-0250_RLatLon0.09_PT016H.grib2 2026-04-14 14:44 422K
20260414T12Z_MSC_RDPS_AirTemp_IsbL-0275_RLatLon0.09_PT016H.grib2 2026-04-14 14:44 406K
20260414T12Z_MSC_RDPS_AirTemp_IsbL-0300_RLatLon0.09_PT016H.grib2 2026-04-14 14:44 438K
20260414T12Z_MSC_RDPS_AirTemp_IsbL-0350_RLatLon0.09_PT016H.grib2 2026-04-14 14:44 425K
20260414T12Z_MSC_RDPS_AirTemp_IsbL-0400_RLatLon0.09_PT016H.grib2 2026-04-14 14:44 425K
20260414T12Z_MSC_RDPS_AirTemp_IsbL-0450_RLatLon0.09_PT016H.grib2 2026-04-14 14:44 399K
20260414T12Z_MSC_RDPS_AirTemp_IsbL-0500_RLatLon0.09_PT016H.grib2 2026-04-14 14:44 411K
20260414T12Z_MSC_RDPS_AirTemp_IsbL-0550_RLatLon0.09_PT016H.grib2 2026-04-14 14:44 430K
20260414T12Z_MSC_RDPS_AirTemp_IsbL-0600_RLatLon0.09_PT016H.grib2 2026-04-14 14:44 449K
20260414T12Z_MSC_RDPS_AirTemp_IsbL-0650_RLatLon0.09_PT016H.grib2 2026-04-14 14:44 356K
20260414T12Z_MSC_RDPS_AirTemp_IsbL-0700_RLatLon0.09_PT016H.grib2 2026-04-14 14:44 376K
20260414T12Z_MSC_RDPS_AirTemp_IsbL-0750_RLatLon0.09_PT016H.grib2 2026-04-14 14:44 409K
20260414T12Z_MSC_RDPS_AirTemp_IsbL-0800_RLatLon0.09_PT016H.grib2 2026-04-14 14:44 454K
20260414T12Z_MSC_RDPS_AirTemp_IsbL-0850_RLatLon0.09_PT016H.grib2 2026-04-14 14:44 496K
20260414T12Z_MSC_RDPS_AirTemp_IsbL-0875_RLatLon0.09_PT016H.grib2 2026-04-14 14:44 505K
20260414T12Z_MSC_RDPS_AirTemp_IsbL-0900_RLatLon0.09_PT016H.grib2 2026-04-14 14:44 509K
20260414T12Z_MSC_RDPS_AirTemp_IsbL-0925_RLatLon0.09_PT016H.grib2 2026-04-14 14:44 508K
20260414T12Z_MSC_RDPS_AirTemp_IsbL-0950_RLatLon0.09_PT016H.grib2 2026-04-14 14:44 510K
20260414T12Z_MSC_RDPS_AirTemp_IsbL-0970_RLatLon0.09_PT016H.grib2 2026-04-14 14:44 521K
20260414T12Z_MSC_RDPS_AirTemp_IsbL-0985_RLatLon0.09_PT016H.grib2 2026-04-14 14:44 512K
20260414T12Z_MSC_RDPS_AirTemp_IsbL-1000_RLatLon0.09_PT016H.grib2 2026-04-14 14:44 498K
20260414T12Z_MSC_RDPS_AirTemp_IsbL-1015_RLatLon0.09_PT016H.grib2 2026-04-14 14:44 497K
20260414T12Z_MSC_RDPS_Albedo_Sfc_RLatLon0.09_PT016H.grib2 2026-04-14 14:44 167K
20260414T12Z_MSC_RDPS_CAPE_Sfc_RLatLon0.09_PT016H.grib2 2026-04-14 14:44 1.6M
20260414T12Z_MSC_RDPS_CIN_Sfc_RLatLon0.09_PT016H.grib2 2026-04-14 14:44 1.1M
20260414T12Z_MSC_RDPS_CloudWater_EAtm_RLatLon0.09_PT016H.grib2 2026-04-14 14:44 208K
20260414T12Z_MSC_RDPS_ConvectivePrecip-Accum_Sfc_RLatLon0.09_PT016H.grib2 2026-04-14 14:44 736K
20260414T12Z_MSC_RDPS_DewPointDepression_AGL-2m_RLatLon0.09_PT016H.grib2 2026-04-14 14:44 378K
20260414T12Z_MSC_RDPS_DewPointDepression_IsbL-0001_RLatLon0.09_PT016H.grib2 2026-04-14 14:44 193
20260414T12Z_MSC_RDPS_DewPointDepression_IsbL-0005_RLatLon0.09_PT016H.grib2 2026-04-14 14:44 193
20260414T12Z_MSC_RDPS_DewPointDepression_IsbL-0010_RLatLon0.09_PT016H.grib2 2026-04-14 14:44 193
20260414T12Z_MSC_RDPS_DewPointDepression_IsbL-0020_RLatLon0.09_PT016H.grib2 2026-04-14 14:44 193
20260414T12Z_MSC_RDPS_DewPointDepression_IsbL-0030_RLatLon0.09_PT016H.grib2 2026-04-14 14:44 22K
20260414T12Z_MSC_RDPS_DewPointDepression_IsbL-0050_RLatLon0.09_PT016H.grib2 2026-04-14 14:44 105K
20260414T12Z_MSC_RDPS_DewPointDepression_IsbL-0100_RLatLon0.09_PT016H.grib2 2026-04-14 14:44 130K
20260414T12Z_MSC_RDPS_DewPointDepression_IsbL-0150_RLatLon0.09_PT016H.grib2 2026-04-14 14:44 146K
20260414T12Z_MSC_RDPS_DewPointDepression_IsbL-0175_RLatLon0.09_PT016H.grib2 2026-04-14 14:44 173K
20260414T12Z_MSC_RDPS_DewPointDepression_IsbL-0200_RLatLon0.09_PT016H.grib2 2026-04-14 14:44 203K
20260414T12Z_MSC_RDPS_DewPointDepression_IsbL-0225_RLatLon0.09_PT016H.grib2 2026-04-14 14:44 243K
20260414T12Z_MSC_RDPS_DewPointDepression_IsbL-0250_RLatLon0.09_PT016H.grib2 2026-04-14 14:44 289K
20260414T12Z_MSC_RDPS_DewPointDepression_IsbL-0275_RLatLon0.09_PT016H.grib2 2026-04-14 14:44 302K
20260414T12Z_MSC_RDPS_DewPointDepression_IsbL-0300_RLatLon0.09_PT016H.grib2 2026-04-14 14:44 321K
20260414T12Z_MSC_RDPS_DewPointDepression_IsbL-0350_RLatLon0.09_PT016H.grib2 2026-04-14 14:44 330K
20260414T12Z_MSC_RDPS_DewPointDepression_IsbL-0400_RLatLon0.09_PT016H.grib2 2026-04-14 14:44 343K
20260414T12Z_MSC_RDPS_DewPointDepression_IsbL-0450_RLatLon0.09_PT016H.grib2 2026-04-14 14:44 347K
20260414T12Z_MSC_RDPS_DewPointDepression_IsbL-0500_RLatLon0.09_PT016H.grib2 2026-04-14 14:44 350K
20260414T12Z_MSC_RDPS_DewPointDepression_IsbL-0550_RLatLon0.09_PT016H.grib2 2026-04-14 14:44 363K
20260414T12Z_MSC_RDPS_DewPointDepression_IsbL-0600_RLatLon0.09_PT016H.grib2 2026-04-14 14:44 372K
20260414T12Z_MSC_RDPS_DewPointDepression_IsbL-0650_RLatLon0.09_PT016H.grib2 2026-04-14 14:44 375K
20260414T12Z_MSC_RDPS_DewPointDepression_IsbL-0700_RLatLon0.09_PT016H.grib2 2026-04-14 14:44 385K
20260414T12Z_MSC_RDPS_DewPointDepression_IsbL-0750_RLatLon0.09_PT016H.grib2 2026-04-14 14:44 403K
20260414T12Z_MSC_RDPS_DewPointDepression_IsbL-0800_RLatLon0.09_PT016H.grib2 2026-04-14 14:44 432K
20260414T12Z_MSC_RDPS_DewPointDepression_IsbL-0850_RLatLon0.09_PT016H.grib2 2026-04-14 14:44 460K
20260414T12Z_MSC_RDPS_DewPointDepression_IsbL-0875_RLatLon0.09_PT016H.grib2 2026-04-14 14:44 455K
20260414T12Z_MSC_RDPS_DewPointDepression_IsbL-0900_RLatLon0.09_PT016H.grib2 2026-04-14 14:44 449K
20260414T12Z_MSC_RDPS_DewPointDepression_IsbL-0925_RLatLon0.09_PT016H.grib2 2026-04-14 14:44 439K
20260414T12Z_MSC_RDPS_DewPointDepression_IsbL-0950_RLatLon0.09_PT016H.grib2 2026-04-14 14:44 430K
20260414T12Z_MSC_RDPS_DewPointDepression_IsbL-0970_RLatLon0.09_PT016H.grib2 2026-04-14 14:44 423K
20260414T12Z_MSC_RDPS_DewPointDepression_IsbL-0985_RLatLon0.09_PT016H.grib2 2026-04-14 14:44 418K
20260414T12Z_MSC_RDPS_DewPointDepression_IsbL-1000_RLatLon0.09_PT016H.grib2 2026-04-14 14:44 413K
20260414T12Z_MSC_RDPS_DewPointDepression_IsbL-1015_RLatLon0.09_PT016H.grib2 2026-04-14 14:44 402K
20260414T12Z_MSC_RDPS_DewPoint_AGL-2m_RLatLon0.09_PT016H.grib2 2026-04-14 14:44 299K
20260414T12Z_MSC_RDPS_DownwardLongwaveRadiationFlux-Accum_Sfc_RLatLon0.09_PT016H.grib2 2026-04-14 14:44 503K
20260414T12Z_MSC_RDPS_DownwardShortwaveRadiationFlux-Accum_NTAtm_RLatLon0.09_PT016H.grib2 2026-04-14 14:44 114K
20260414T12Z_MSC_RDPS_DownwardShortwaveRadiationFlux-Accum_Sfc_RLatLon0.09_PT016H.grib2 2026-04-14 14:44 578K
20260414T12Z_MSC_RDPS_FreezingRain-Accum1h_Sfc_RLatLon0.09_PT016H.grib2 2026-04-14 14:44 28K
20260414T12Z_MSC_RDPS_FreezingRain-Accum_Sfc_RLatLon0.09_PT016H.grib2 2026-04-14 14:44 67K
20260414T12Z_MSC_RDPS_GeopotentialHeight_IsbL-0001_RLatLon0.09_PT016H.grib2 2026-04-14 14:44 209K
20260414T12Z_MSC_RDPS_GeopotentialHeight_IsbL-0005_RLatLon0.09_PT016H.grib2 2026-04-14 14:44 269K
20260414T12Z_MSC_RDPS_GeopotentialHeight_IsbL-0010_RLatLon0.09_PT016H.grib2 2026-04-14 14:44 238K
20260414T12Z_MSC_RDPS_GeopotentialHeight_IsbL-0020_RLatLon0.09_PT016H.grib2 2026-04-14 14:44 309K
20260414T12Z_MSC_RDPS_GeopotentialHeight_IsbL-0030_RLatLon0.09_PT016H.grib2 2026-04-14 14:44 310K
20260414T12Z_MSC_RDPS_GeopotentialHeight_IsbL-0050_RLatLon0.09_PT016H.grib2 2026-04-14 14:44 240K
20260414T12Z_MSC_RDPS_GeopotentialHeight_IsbL-0100_RLatLon0.09_PT016H.grib2 2026-04-14 14:44 223K
20260414T12Z_MSC_RDPS_GeopotentialHeight_IsbL-0150_RLatLon0.09_PT016H.grib2 2026-04-14 14:44 265K
20260414T12Z_MSC_RDPS_GeopotentialHeight_IsbL-0175_RLatLon0.09_PT016H.grib2 2026-04-14 14:44 265K
20260414T12Z_MSC_RDPS_GeopotentialHeight_IsbL-0200_RLatLon0.09_PT016H.grib2 2026-04-14 14:44 266K
20260414T12Z_MSC_RDPS_GeopotentialHeight_IsbL-0225_RLatLon0.09_PT016H.grib2 2026-04-14 14:44 267K
20260414T12Z_MSC_RDPS_GeopotentialHeight_IsbL-0250_RLatLon0.09_PT016H.grib2 2026-04-14 14:44 268K
20260414T12Z_MSC_RDPS_GeopotentialHeight_IsbL-0275_RLatLon0.09_PT016H.grib2 2026-04-14 14:44 267K
20260414T12Z_MSC_RDPS_GeopotentialHeight_IsbL-0300_RLatLon0.09_PT016H.grib2 2026-04-14 14:44 267K
20260414T12Z_MSC_RDPS_GeopotentialHeight_IsbL-0350_RLatLon0.09_PT016H.grib2 2026-04-14 14:44 263K
20260414T12Z_MSC_RDPS_GeopotentialHeight_IsbL-0400_RLatLon0.09_PT016H.grib2 2026-04-14 14:44 259K
20260414T12Z_MSC_RDPS_GeopotentialHeight_IsbL-0450_RLatLon0.09_PT016H.grib2 2026-04-14 14:44 223K
20260414T12Z_MSC_RDPS_GeopotentialHeight_IsbL-0500_RLatLon0.09_PT016H.grib2 2026-04-14 14:44 219K
20260414T12Z_MSC_RDPS_GeopotentialHeight_IsbL-0550_RLatLon0.09_PT016H.grib2 2026-04-14 14:44 286K
20260414T12Z_MSC_RDPS_GeopotentialHeight_IsbL-0600_RLatLon0.09_PT016H.grib2 2026-04-14 14:44 282K
20260414T12Z_MSC_RDPS_GeopotentialHeight_IsbL-0650_RLatLon0.09_PT016H.grib2 2026-04-14 14:44 281K
20260414T12Z_MSC_RDPS_GeopotentialHeight_IsbL-0700_RLatLon0.09_PT016H.grib2 2026-04-14 14:44 280K
20260414T12Z_MSC_RDPS_GeopotentialHeight_IsbL-0750_RLatLon0.09_PT016H.grib2 2026-04-14 14:44 254K
20260414T12Z_MSC_RDPS_GeopotentialHeight_IsbL-0800_RLatLon0.09_PT016H.grib2 2026-04-14 14:44 262K
20260414T12Z_MSC_RDPS_GeopotentialHeight_IsbL-0850_RLatLon0.09_PT016H.grib2 2026-04-14 14:44 355K
20260414T12Z_MSC_RDPS_GeopotentialHeight_IsbL-0875_RLatLon0.09_PT016H.grib2 2026-04-14 14:44 357K
20260414T12Z_MSC_RDPS_GeopotentialHeight_IsbL-0900_RLatLon0.09_PT016H.grib2 2026-04-14 14:44 360K
20260414T12Z_MSC_RDPS_GeopotentialHeight_IsbL-0925_RLatLon0.09_PT016H.grib2 2026-04-14 14:44 362K
20260414T12Z_MSC_RDPS_GeopotentialHeight_IsbL-0950_RLatLon0.09_PT016H.grib2 2026-04-14 14:44 366K
20260414T12Z_MSC_RDPS_GeopotentialHeight_IsbL-0970_RLatLon0.09_PT016H.grib2 2026-04-14 14:44 372K
20260414T12Z_MSC_RDPS_GeopotentialHeight_IsbL-0985_RLatLon0.09_PT016H.grib2 2026-04-14 14:44 380K
20260414T12Z_MSC_RDPS_GeopotentialHeight_IsbL-1000_RLatLon0.09_PT016H.grib2 2026-04-14 14:44 390K
20260414T12Z_MSC_RDPS_GeopotentialHeight_IsbL-1015_RLatLon0.09_PT016H.grib2 2026-04-14 14:44 404K
20260414T12Z_MSC_RDPS_Humidex_Sfc_RLatLon0.09_PT016H.grib2 2026-04-14 14:44 2.4M
20260414T12Z_MSC_RDPS_IcePellets-Accum1h_Sfc_RLatLon0.09_PT016H.grib2 2026-04-14 14:44 4.2K
20260414T12Z_MSC_RDPS_IcePellets-Accum_Sfc_RLatLon0.09_PT016H.grib2 2026-04-14 14:44 11K
20260414T12Z_MSC_RDPS_KIndex_Sfc_RLatLon0.09_PT016H.grib2 2026-04-14 14:44 2.5M
20260414T12Z_MSC_RDPS_LatentHeatNetFlux_Sfc_RLatLon0.09_PT016H.grib2 2026-04-14 14:44 294K
20260414T12Z_MSC_RDPS_LiftedIndex-MU-VT_IsbL-0500_RLatLon0.09_PT016H.grib2 2026-04-14 14:44 2.4M
20260414T12Z_MSC_RDPS_NetLongwaveRadiationFlux-Accum_Sfc_RLatLon0.09_PT016H.grib2 2026-04-14 14:44 514K
20260414T12Z_MSC_RDPS_NetShortwaveRadiationFlux-Accum_Sfc_RLatLon0.09_PT016H.grib2 2026-04-14 14:44 584K
20260414T12Z_MSC_RDPS_PlanetaryBoundaryLayerHeight_Sfc_RLatLon0.09_PT016H.grib2 2026-04-14 14:44 1.1M
20260414T12Z_MSC_RDPS_Precip-Accum1h_Sfc_RLatLon0.09_PT016H.grib2 2026-04-14 14:44 1.2M
20260414T12Z_MSC_RDPS_Precip-Accum_Sfc_RLatLon0.09_PT016H.grib2 2026-04-14 14:44 1.6M
20260414T12Z_MSC_RDPS_PrecipRate_Sfc_RLatLon0.09_PT016H.grib2 2026-04-14 14:44 171K
20260414T12Z_MSC_RDPS_PrecipType-Instant_Sfc_RLatLon0.09_PT016H.grib2 2026-04-14 14:44 565K
20260414T12Z_MSC_RDPS_Pressure-Trend3h_Sfc_RLatLon0.09_PT016H.grib2 2026-04-14 14:44 1.2M
20260414T12Z_MSC_RDPS_Pressure_MSL_RLatLon0.09_PT016H.grib2 2026-04-14 14:44 325K
20260414T12Z_MSC_RDPS_Pressure_PVU-1.5_RLatLon0.09_PT016H.grib2 2026-04-14 14:44 2.3M
20260414T12Z_MSC_RDPS_Pressure_PVU-1_RLatLon0.09_PT016H.grib2 2026-04-14 14:44 2.4M
20260414T12Z_MSC_RDPS_Pressure_PVU-2_RLatLon0.09_PT016H.grib2 2026-04-14 14:44 2.3M
20260414T12Z_MSC_RDPS_Pressure_Sfc_RLatLon0.09_PT016H.grib2 2026-04-14 14:44 499K
20260414T12Z_MSC_RDPS_RadiativeTemp_Sfc_RLatLon0.09_PT016H.grib2 2026-04-14 14:44 300K
20260414T12Z_MSC_RDPS_Rain-Accum1h_Sfc_RLatLon0.09_PT016H.grib2 2026-04-14 14:44 594K
20260414T12Z_MSC_RDPS_Rain-Accum_Sfc_RLatLon0.09_PT016H.grib2 2026-04-14 14:44 1.2M
20260414T12Z_MSC_RDPS_RelativeHumidity_AGL-2m_RLatLon0.09_PT016H.grib2 2026-04-14 14:44 1.0M
20260414T12Z_MSC_RDPS_RelativeHumidity_IsbL-0010_RLatLon0.09_PT016H.grib2 2026-04-14 14:44 427K
20260414T12Z_MSC_RDPS_RelativeHumidity_IsbL-0020_RLatLon0.09_PT016H.grib2 2026-04-14 14:44 400K
20260414T12Z_MSC_RDPS_RelativeHumidity_IsbL-0030_RLatLon0.09_PT016H.grib2 2026-04-14 14:44 367K
20260414T12Z_MSC_RDPS_RelativeHumidity_IsbL-0050_RLatLon0.09_PT016H.grib2 2026-04-14 14:44 390K
20260414T12Z_MSC_RDPS_RelativeHumidity_IsbL-0100_RLatLon0.09_PT016H.grib2 2026-04-14 14:44 270K
20260414T12Z_MSC_RDPS_RelativeHumidity_IsbL-0150_RLatLon0.09_PT016H.grib2 2026-04-14 14:44 392K
20260414T12Z_MSC_RDPS_RelativeHumidity_IsbL-0175_RLatLon0.09_PT016H.grib2 2026-04-14 14:44 463K
20260414T12Z_MSC_RDPS_RelativeHumidity_IsbL-0200_RLatLon0.09_PT016H.grib2 2026-04-14 14:44 526K
20260414T12Z_MSC_RDPS_RelativeHumidity_IsbL-0225_RLatLon0.09_PT016H.grib2 2026-04-14 14:44 592K
20260414T12Z_MSC_RDPS_RelativeHumidity_IsbL-0250_RLatLon0.09_PT016H.grib2 2026-04-14 14:44 669K
20260414T12Z_MSC_RDPS_RelativeHumidity_IsbL-0275_RLatLon0.09_PT016H.grib2 2026-04-14 14:44 700K
20260414T12Z_MSC_RDPS_RelativeHumidity_IsbL-0300_RLatLon0.09_PT016H.grib2 2026-04-14 14:44 748K
20260414T12Z_MSC_RDPS_RelativeHumidity_IsbL-0350_RLatLon0.09_PT016H.grib2 2026-04-14 14:44 777K
20260414T12Z_MSC_RDPS_RelativeHumidity_IsbL-0400_RLatLon0.09_PT016H.grib2 2026-04-14 14:44 791K
20260414T12Z_MSC_RDPS_RelativeHumidity_IsbL-0450_RLatLon0.09_PT016H.grib2 2026-04-14 14:44 797K
20260414T12Z_MSC_RDPS_RelativeHumidity_IsbL-0500_RLatLon0.09_PT016H.grib2 2026-04-14 14:44 815K
20260414T12Z_MSC_RDPS_RelativeHumidity_IsbL-0550_RLatLon0.09_PT016H.grib2 2026-04-14 14:44 820K
20260414T12Z_MSC_RDPS_RelativeHumidity_IsbL-0600_RLatLon0.09_PT016H.grib2 2026-04-14 14:44 839K
20260414T12Z_MSC_RDPS_RelativeHumidity_IsbL-0650_RLatLon0.09_PT016H.grib2 2026-04-14 14:44 860K
20260414T12Z_MSC_RDPS_RelativeHumidity_IsbL-0700_RLatLon0.09_PT016H.grib2 2026-04-14 14:44 882K
20260414T12Z_MSC_RDPS_RelativeHumidity_IsbL-0750_RLatLon0.09_PT016H.grib2 2026-04-14 14:44 920K
20260414T12Z_MSC_RDPS_RelativeHumidity_IsbL-0800_RLatLon0.09_PT016H.grib2 2026-04-14 14:44 1.0M
20260414T12Z_MSC_RDPS_RelativeHumidity_IsbL-0850_RLatLon0.09_PT016H.grib2 2026-04-14 14:44 1.0M
20260414T12Z_MSC_RDPS_RelativeHumidity_IsbL-0875_RLatLon0.09_PT016H.grib2 2026-04-14 14:44 1.0M
20260414T12Z_MSC_RDPS_RelativeHumidity_IsbL-0900_RLatLon0.09_PT016H.grib2 2026-04-14 14:44 1.0M
20260414T12Z_MSC_RDPS_RelativeHumidity_IsbL-0925_RLatLon0.09_PT016H.grib2 2026-04-14 14:44 1.0M
20260414T12Z_MSC_RDPS_RelativeHumidity_IsbL-0950_RLatLon0.09_PT016H.grib2 2026-04-14 14:44 1.0M
20260414T12Z_MSC_RDPS_RelativeHumidity_IsbL-0970_RLatLon0.09_PT016H.grib2 2026-04-14 14:44 1.0M
20260414T12Z_MSC_RDPS_RelativeHumidity_IsbL-0985_RLatLon0.09_PT016H.grib2 2026-04-14 14:44 1.0M
20260414T12Z_MSC_RDPS_RelativeHumidity_IsbL-1000_RLatLon0.09_PT016H.grib2 2026-04-14 14:44 1.0M
20260414T12Z_MSC_RDPS_RelativeHumidity_IsbL-1015_RLatLon0.09_PT016H.grib2 2026-04-14 14:44 1.0M
20260414T12Z_MSC_RDPS_Runoff-Accum_Sfc_RLatLon0.09_PT016H.grib2 2026-04-14 14:44 46K
20260414T12Z_MSC_RDPS_SWEATIndex_Sfc_RLatLon0.09_PT016H.grib2 2026-04-14 14:44 2.4M
20260414T12Z_MSC_RDPS_SeeingIndex_EAtm_RLatLon0.09_PT016H.grib2 2026-04-14 14:44 1.0M
20260414T12Z_MSC_RDPS_SensibleHeatNetFlux_Sfc_RLatLon0.09_PT016H.grib2 2026-04-14 14:44 286K
20260414T12Z_MSC_RDPS_ShowalterIndex_IsbL-0500_RLatLon0.09_PT016H.grib2 2026-04-14 14:44 2.6M
20260414T12Z_MSC_RDPS_SkyTransparencyIndex_EAtm_RLatLon0.09_PT016H.grib2 2026-04-14 14:44 697K
20260414T12Z_MSC_RDPS_Snow-Accum1h_Sfc_RLatLon0.09_PT016H.grib2 2026-04-14 14:44 340K
20260414T12Z_MSC_RDPS_Snow-Accum_Sfc_RLatLon0.09_PT016H.grib2 2026-04-14 14:44 643K
20260414T12Z_MSC_RDPS_SnowDensity_Sfc_RLatLon0.09_PT016H.grib2 2026-04-14 14:44 174K
20260414T12Z_MSC_RDPS_SnowDepth_Sfc_RLatLon0.09_PT016H.grib2 2026-04-14 14:44 722K
20260414T12Z_MSC_RDPS_SoilTemp_DBS-0to10cm_RLatLon0.09_PT016H.grib2 2026-04-14 14:44 219K
20260414T12Z_MSC_RDPS_SoilTemp_Sfc_RLatLon0.09_PT016H.grib2 2026-04-14 14:44 264K
20260414T12Z_MSC_RDPS_SoilVolumetricIceContent_Sfc_RLatLon0.09_PT016H.grib2 2026-04-14 14:44 176K
20260414T12Z_MSC_RDPS_SoilVolumetricWaterContent_DBS-0to10cm_RLatLon0.09_PT016H.grib2 2026-04-14 14:44 243K
20260414T12Z_MSC_RDPS_SoilVolumetricWaterContent_DBS-0to1cm_RLatLon0.09_PT016H.grib2 2026-04-14 14:44 334K
20260414T12Z_MSC_RDPS_SpecificHumidity_AGL-120m_RLatLon0.09_PT016H.grib2 2026-04-14 14:44 460K
20260414T12Z_MSC_RDPS_SpecificHumidity_AGL-2m_RLatLon0.09_PT016H.grib2 2026-04-14 14:44 616K
20260414T12Z_MSC_RDPS_SpecificHumidity_AGL-40m_RLatLon0.09_PT016H.grib2 2026-04-14 14:44 464K
20260414T12Z_MSC_RDPS_SpecificHumidity_AGL-80m_RLatLon0.09_PT016H.grib2 2026-04-14 14:44 460K
20260414T12Z_MSC_RDPS_SpecificHumidity_IsbL-0001_RLatLon0.09_PT016H.grib2 2026-04-14 14:44 299K
20260414T12Z_MSC_RDPS_SpecificHumidity_IsbL-0005_RLatLon0.09_PT016H.grib2 2026-04-14 14:44 347K
20260414T12Z_MSC_RDPS_SpecificHumidity_IsbL-0010_RLatLon0.09_PT016H.grib2 2026-04-14 14:44 368K
20260414T12Z_MSC_RDPS_SpecificHumidity_IsbL-0020_RLatLon0.09_PT016H.grib2 2026-04-14 14:44 377K
20260414T12Z_MSC_RDPS_SpecificHumidity_IsbL-0030_RLatLon0.09_PT016H.grib2 2026-04-14 14:44 478K
20260414T12Z_MSC_RDPS_SpecificHumidity_IsbL-0050_RLatLon0.09_PT016H.grib2 2026-04-14 14:44 504K
20260414T12Z_MSC_RDPS_SpecificHumidity_IsbL-0100_RLatLon0.09_PT016H.grib2 2026-04-14 14:44 403K
20260414T12Z_MSC_RDPS_SpecificHumidity_IsbL-0150_RLatLon0.09_PT016H.grib2 2026-04-14 14:44 435K
20260414T12Z_MSC_RDPS_SpecificHumidity_IsbL-0175_RLatLon0.09_PT016H.grib2 2026-04-14 14:44 522K
20260414T12Z_MSC_RDPS_SpecificHumidity_IsbL-0200_RLatLon0.09_PT016H.grib2 2026-04-14 14:44 427K
20260414T12Z_MSC_RDPS_SpecificHumidity_IsbL-0225_RLatLon0.09_PT016H.grib2 2026-04-14 14:44 432K
20260414T12Z_MSC_RDPS_SpecificHumidity_IsbL-0250_RLatLon0.09_PT016H.grib2 2026-04-14 14:44 541K
20260414T12Z_MSC_RDPS_SpecificHumidity_IsbL-0275_RLatLon0.09_PT016H.grib2 2026-04-14 14:44 459K
20260414T12Z_MSC_RDPS_SpecificHumidity_IsbL-0300_RLatLon0.09_PT016H.grib2 2026-04-14 14:44 530K
20260414T12Z_MSC_RDPS_SpecificHumidity_IsbL-0350_RLatLon0.09_PT016H.grib2 2026-04-14 14:44 529K
20260414T12Z_MSC_RDPS_SpecificHumidity_IsbL-0400_RLatLon0.09_PT016H.grib2 2026-04-14 14:44 512K
20260414T12Z_MSC_RDPS_SpecificHumidity_IsbL-0450_RLatLon0.09_PT016H.grib2 2026-04-14 14:44 565K
20260414T12Z_MSC_RDPS_SpecificHumidity_IsbL-0500_RLatLon0.09_PT016H.grib2 2026-04-14 14:44 499K
20260414T12Z_MSC_RDPS_SpecificHumidity_IsbL-0550_RLatLon0.09_PT016H.grib2 2026-04-14 14:44 555K
20260414T12Z_MSC_RDPS_SpecificHumidity_IsbL-0600_RLatLon0.09_PT016H.grib2 2026-04-14 14:44 621K
20260414T12Z_MSC_RDPS_SpecificHumidity_IsbL-0650_RLatLon0.09_PT016H.grib2 2026-04-14 14:44 536K
20260414T12Z_MSC_RDPS_SpecificHumidity_IsbL-0700_RLatLon0.09_PT016H.grib2 2026-04-14 14:44 576K
20260414T12Z_MSC_RDPS_SpecificHumidity_IsbL-0750_RLatLon0.09_PT016H.grib2 2026-04-14 14:44 628K
20260414T12Z_MSC_RDPS_SpecificHumidity_IsbL-0800_RLatLon0.09_PT016H.grib2 2026-04-14 14:44 699K
20260414T12Z_MSC_RDPS_SpecificHumidity_IsbL-0850_RLatLon0.09_PT016H.grib2 2026-04-14 14:44 776K
20260414T12Z_MSC_RDPS_SpecificHumidity_IsbL-0875_RLatLon0.09_PT016H.grib2 2026-04-14 14:44 790K
20260414T12Z_MSC_RDPS_SpecificHumidity_IsbL-0900_RLatLon0.09_PT016H.grib2 2026-04-14 14:44 801K
20260414T12Z_MSC_RDPS_SpecificHumidity_IsbL-0925_RLatLon0.09_PT016H.grib2 2026-04-14 14:44 806K
20260414T12Z_MSC_RDPS_SpecificHumidity_IsbL-0950_RLatLon0.09_PT016H.grib2 2026-04-14 14:44 806K
20260414T12Z_MSC_RDPS_SpecificHumidity_IsbL-0970_RLatLon0.09_PT016H.grib2 2026-04-14 14:44 801K
20260414T12Z_MSC_RDPS_SpecificHumidity_IsbL-0985_RLatLon0.09_PT016H.grib2 2026-04-14 14:44 791K
20260414T12Z_MSC_RDPS_SpecificHumidity_IsbL-1000_RLatLon0.09_PT016H.grib2 2026-04-14 14:44 640K
20260414T12Z_MSC_RDPS_SpecificHumidity_IsbL-1015_RLatLon0.09_PT016H.grib2 2026-04-14 14:44 629K
20260414T12Z_MSC_RDPS_SpecificHumidity_Sfc_RLatLon0.09_PT016H.grib2 2026-04-14 14:44 278K
20260414T12Z_MSC_RDPS_StormRelativeHelicity_EtaL-10000_RLatLon0.09_PT016H.grib2 2026-04-14 14:44 1.1M
20260414T12Z_MSC_RDPS_StormSeverityIndex_EtaL-10000_RLatLon0.09_PT016H.grib2 2026-04-14 14:44 1.2M
20260414T12Z_MSC_RDPS_Thickness_IsbL-0850to0700_RLatLon0.09_PT016H.grib2 2026-04-14 14:44 175K
20260414T12Z_MSC_RDPS_Thickness_IsbL-1000to0500_RLatLon0.09_PT016H.grib2 2026-04-14 14:44 196K
20260414T12Z_MSC_RDPS_Thickness_IsbL-1000to0850_RLatLon0.09_PT016H.grib2 2026-04-14 14:44 184K
20260414T12Z_MSC_RDPS_TotalCloudCover_Sfc_RLatLon0.09_PT016H.grib2 2026-04-14 14:44 652K
20260414T12Z_MSC_RDPS_TotalTotalsIndex_Sfc_RLatLon0.09_PT016H.grib2 2026-04-14 14:44 2.4M
20260414T12Z_MSC_RDPS_UVIndex-ClearSky_Sfc_RLatLon0.09_PT016H.grib2 2026-04-14 14:44 94K
20260414T12Z_MSC_RDPS_UVIndex_Sfc_RLatLon0.09_PT016H.grib2 2026-04-14 14:44 159K
20260414T12Z_MSC_RDPS_UpwardLongwaveRadiationFlux_NTAtm_RLatLon0.09_PT016H.grib2 2026-04-14 14:44 474K
20260414T12Z_MSC_RDPS_UpwardShortwaveRadiationFlux_NTAtm_RLatLon0.09_PT016H.grib2 2026-04-14 14:44 131K
20260414T12Z_MSC_RDPS_VerticalVelocity_IsbL-0250_RLatLon0.09_PT016H.grib2 2026-04-14 14:44 543K
20260414T12Z_MSC_RDPS_VerticalVelocity_IsbL-0500_RLatLon0.09_PT016H.grib2 2026-04-14 14:44 565K
20260414T12Z_MSC_RDPS_VerticalVelocity_IsbL-0700_RLatLon0.09_PT016H.grib2 2026-04-14 14:44 616K
20260414T12Z_MSC_RDPS_VerticalVelocity_IsbL-0850_RLatLon0.09_PT016H.grib2 2026-04-14 14:44 686K
20260414T12Z_MSC_RDPS_VerticalWindShear_EtaL-6500_RLatLon0.09_PT016H.grib2 2026-04-14 14:44 1.2M
20260414T12Z_MSC_RDPS_WindChill_Sfc_RLatLon0.09_PT016H.grib2 2026-04-14 14:44 1.1M
20260414T12Z_MSC_RDPS_WindDir_AGL-10m_RLatLon0.09_PT016H.grib2 2026-04-14 14:44 941K
20260414T12Z_MSC_RDPS_WindDir_AGL-120m_RLatLon0.09_PT016H.grib2 2026-04-14 14:44 569K
20260414T12Z_MSC_RDPS_WindDir_AGL-40m_RLatLon0.09_PT016H.grib2 2026-04-14 14:44 606K
20260414T12Z_MSC_RDPS_WindDir_AGL-80m_RLatLon0.09_PT016H.grib2 2026-04-14 14:44 583K
20260414T12Z_MSC_RDPS_WindDir_IsbL-0001_RLatLon0.09_PT016H.grib2 2026-04-14 14:44 245K
20260414T12Z_MSC_RDPS_WindDir_IsbL-0005_RLatLon0.09_PT016H.grib2 2026-04-14 14:44 331K
20260414T12Z_MSC_RDPS_WindDir_IsbL-0010_RLatLon0.09_PT016H.grib2 2026-04-14 14:44 348K
20260414T12Z_MSC_RDPS_WindDir_IsbL-0020_RLatLon0.09_PT016H.grib2 2026-04-14 14:44 367K
20260414T12Z_MSC_RDPS_WindDir_IsbL-0030_RLatLon0.09_PT016H.grib2 2026-04-14 14:44 378K
20260414T12Z_MSC_RDPS_WindDir_IsbL-0050_RLatLon0.09_PT016H.grib2 2026-04-14 14:44 390K
20260414T12Z_MSC_RDPS_WindDir_IsbL-0100_RLatLon0.09_PT016H.grib2 2026-04-14 14:44 379K
20260414T12Z_MSC_RDPS_WindDir_IsbL-0150_RLatLon0.09_PT016H.grib2 2026-04-14 14:44 376K
20260414T12Z_MSC_RDPS_WindDir_IsbL-0175_RLatLon0.09_PT016H.grib2 2026-04-14 14:44 399K
20260414T12Z_MSC_RDPS_WindDir_IsbL-0200_RLatLon0.09_PT016H.grib2 2026-04-14 14:44 418K
20260414T12Z_MSC_RDPS_WindDir_IsbL-0225_RLatLon0.09_PT016H.grib2 2026-04-14 14:44 427K
20260414T12Z_MSC_RDPS_WindDir_IsbL-0250_RLatLon0.09_PT016H.grib2 2026-04-14 14:44 435K
20260414T12Z_MSC_RDPS_WindDir_IsbL-0275_RLatLon0.09_PT016H.grib2 2026-04-14 14:44 460K
20260414T12Z_MSC_RDPS_WindDir_IsbL-0300_RLatLon0.09_PT016H.grib2 2026-04-14 14:44 464K
20260414T12Z_MSC_RDPS_WindDir_IsbL-0350_RLatLon0.09_PT016H.grib2 2026-04-14 14:44 493K
20260414T12Z_MSC_RDPS_WindDir_IsbL-0400_RLatLon0.09_PT016H.grib2 2026-04-14 14:44 517K
20260414T12Z_MSC_RDPS_WindDir_IsbL-0450_RLatLon0.09_PT016H.grib2 2026-04-14 14:44 536K
20260414T12Z_MSC_RDPS_WindDir_IsbL-0500_RLatLon0.09_PT016H.grib2 2026-04-14 14:44 548K
20260414T12Z_MSC_RDPS_WindDir_IsbL-0550_RLatLon0.09_PT016H.grib2 2026-04-14 14:44 570K
20260414T12Z_MSC_RDPS_WindDir_IsbL-0600_RLatLon0.09_PT016H.grib2 2026-04-14 14:44 591K
20260414T12Z_MSC_RDPS_WindDir_IsbL-0650_RLatLon0.09_PT016H.grib2 2026-04-14 14:44 636K
20260414T12Z_MSC_RDPS_WindDir_IsbL-0700_RLatLon0.09_PT016H.grib2 2026-04-14 14:44 676K
20260414T12Z_MSC_RDPS_WindDir_IsbL-0750_RLatLon0.09_PT016H.grib2 2026-04-14 14:44 713K
20260414T12Z_MSC_RDPS_WindDir_IsbL-0800_RLatLon0.09_PT016H.grib2 2026-04-14 14:44 764K
20260414T12Z_MSC_RDPS_WindDir_IsbL-0850_RLatLon0.09_PT016H.grib2 2026-04-14 14:44 827K
20260414T12Z_MSC_RDPS_WindDir_IsbL-0875_RLatLon0.09_PT016H.grib2 2026-04-14 14:44 847K
20260414T12Z_MSC_RDPS_WindDir_IsbL-0900_RLatLon0.09_PT016H.grib2 2026-04-14 14:44 860K
20260414T12Z_MSC_RDPS_WindDir_IsbL-0925_RLatLon0.09_PT016H.grib2 2026-04-14 14:44 869K
20260414T12Z_MSC_RDPS_WindDir_IsbL-0950_RLatLon0.09_PT016H.grib2 2026-04-14 14:44 877K
20260414T12Z_MSC_RDPS_WindDir_IsbL-0970_RLatLon0.09_PT016H.grib2 2026-04-14 14:44 887K
20260414T12Z_MSC_RDPS_WindDir_IsbL-0985_RLatLon0.09_PT016H.grib2 2026-04-14 14:44 899K
20260414T12Z_MSC_RDPS_WindDir_IsbL-1000_RLatLon0.09_PT016H.grib2 2026-04-14 14:44 913K
20260414T12Z_MSC_RDPS_WindDir_IsbL-1015_RLatLon0.09_PT016H.grib2 2026-04-14 14:44 931K
20260414T12Z_MSC_RDPS_WindGust-Max_AGL-10m_RLatLon0.09_PT016H.grib2 2026-04-14 14:44 1.0M
20260414T12Z_MSC_RDPS_WindGust-Min_AGL-10m_RLatLon0.09_PT016H.grib2 2026-04-14 14:44 1.0M
20260414T12Z_MSC_RDPS_WindGust_AGL-10m_RLatLon0.09_PT016H.grib2 2026-04-14 14:44 1.0M
20260414T12Z_MSC_RDPS_WindSpeed_AGL-10m_RLatLon0.09_PT016H.grib2 2026-04-14 14:44 836K
20260414T12Z_MSC_RDPS_WindSpeed_AGL-120m_RLatLon0.09_PT016H.grib2 2026-04-14 14:44 536K
20260414T12Z_MSC_RDPS_WindSpeed_AGL-40m_RLatLon0.09_PT016H.grib2 2026-04-14 14:44 670K
20260414T12Z_MSC_RDPS_WindSpeed_AGL-80m_RLatLon0.09_PT016H.grib2 2026-04-14 14:44 538K
20260414T12Z_MSC_RDPS_WindSpeed_IsbL-0001_RLatLon0.09_PT016H.grib2 2026-04-14 14:44 295K
20260414T12Z_MSC_RDPS_WindSpeed_IsbL-0005_RLatLon0.09_PT016H.grib2 2026-04-14 14:44 305K
20260414T12Z_MSC_RDPS_WindSpeed_IsbL-0010_RLatLon0.09_PT016H.grib2 2026-04-14 14:44 344K
20260414T12Z_MSC_RDPS_WindSpeed_IsbL-0020_RLatLon0.09_PT016H.grib2 2026-04-14 14:44 362K
20260414T12Z_MSC_RDPS_WindSpeed_IsbL-0030_RLatLon0.09_PT016H.grib2 2026-04-14 14:44 330K
20260414T12Z_MSC_RDPS_WindSpeed_IsbL-0050_RLatLon0.09_PT016H.grib2 2026-04-14 14:44 371K
20260414T12Z_MSC_RDPS_WindSpeed_IsbL-0100_RLatLon0.09_PT016H.grib2 2026-04-14 14:44 489K
20260414T12Z_MSC_RDPS_WindSpeed_IsbL-0150_RLatLon0.09_PT016H.grib2 2026-04-14 14:44 372K
20260414T12Z_MSC_RDPS_WindSpeed_IsbL-0175_RLatLon0.09_PT016H.grib2 2026-04-14 14:44 397K
20260414T12Z_MSC_RDPS_WindSpeed_IsbL-0200_RLatLon0.09_PT016H.grib2 2026-04-14 14:44 436K
20260414T12Z_MSC_RDPS_WindSpeed_IsbL-0225_RLatLon0.09_PT016H.grib2 2026-04-14 14:44 443K
20260414T12Z_MSC_RDPS_WindSpeed_IsbL-0250_RLatLon0.09_PT016H.grib2 2026-04-14 14:44 448K
20260414T12Z_MSC_RDPS_WindSpeed_IsbL-0275_RLatLon0.09_PT016H.grib2 2026-04-14 14:44 464K
20260414T12Z_MSC_RDPS_WindSpeed_IsbL-0300_RLatLon0.09_PT016H.grib2 2026-04-14 14:44 462K
20260414T12Z_MSC_RDPS_WindSpeed_IsbL-0350_RLatLon0.09_PT016H.grib2 2026-04-14 14:44 458K
20260414T12Z_MSC_RDPS_WindSpeed_IsbL-0400_RLatLon0.09_PT016H.grib2 2026-04-14 14:44 460K
20260414T12Z_MSC_RDPS_WindSpeed_IsbL-0450_RLatLon0.09_PT016H.grib2 2026-04-14 14:44 461K
20260414T12Z_MSC_RDPS_WindSpeed_IsbL-0500_RLatLon0.09_PT016H.grib2 2026-04-14 14:44 461K
20260414T12Z_MSC_RDPS_WindSpeed_IsbL-0550_RLatLon0.09_PT016H.grib2 2026-04-14 14:44 579K
20260414T12Z_MSC_RDPS_WindSpeed_IsbL-0600_RLatLon0.09_PT016H.grib2 2026-04-14 14:44 590K
20260414T12Z_MSC_RDPS_WindSpeed_IsbL-0650_RLatLon0.09_PT016H.grib2 2026-04-14 14:44 611K
20260414T12Z_MSC_RDPS_WindSpeed_IsbL-0700_RLatLon0.09_PT016H.grib2 2026-04-14 14:44 678K
20260414T12Z_MSC_RDPS_WindSpeed_IsbL-0750_RLatLon0.09_PT016H.grib2 2026-04-14 14:44 708K
20260414T12Z_MSC_RDPS_WindSpeed_IsbL-0800_RLatLon0.09_PT016H.grib2 2026-04-14 14:44 756K
20260414T12Z_MSC_RDPS_WindSpeed_IsbL-0850_RLatLon0.09_PT016H.grib2 2026-04-14 14:44 814K
20260414T12Z_MSC_RDPS_WindSpeed_IsbL-0875_RLatLon0.09_PT016H.grib2 2026-04-14 14:44 834K
20260414T12Z_MSC_RDPS_WindSpeed_IsbL-0900_RLatLon0.09_PT016H.grib2 2026-04-14 14:44 848K
20260414T12Z_MSC_RDPS_WindSpeed_IsbL-0925_RLatLon0.09_PT016H.grib2 2026-04-14 14:44 861K
20260414T12Z_MSC_RDPS_WindSpeed_IsbL-0950_RLatLon0.09_PT016H.grib2 2026-04-14 14:44 859K
20260414T12Z_MSC_RDPS_WindSpeed_IsbL-0970_RLatLon0.09_PT016H.grib2 2026-04-14 14:44 860K
20260414T12Z_MSC_RDPS_WindSpeed_IsbL-0985_RLatLon0.09_PT016H.grib2 2026-04-14 14:44 855K
20260414T12Z_MSC_RDPS_WindSpeed_IsbL-1000_RLatLon0.09_PT016H.grib2 2026-04-14 14:44 849K
20260414T12Z_MSC_RDPS_WindSpeed_IsbL-1015_RLatLon0.09_PT016H.grib2 2026-04-14 14:44 837K
20260414T12Z_MSC_RDPS_WindU_AGL-10m_RLatLon0.09_PT016H.grib2 2026-04-14 14:44 429K
20260414T12Z_MSC_RDPS_WindU_AGL-120m_RLatLon0.09_PT016H.grib2 2026-04-14 14:44 532K
20260414T12Z_MSC_RDPS_WindU_AGL-40m_RLatLon0.09_PT016H.grib2 2026-04-14 14:44 536K
20260414T12Z_MSC_RDPS_WindU_AGL-80m_RLatLon0.09_PT016H.grib2 2026-04-14 14:44 534K
20260414T12Z_MSC_RDPS_WindU_IsbL-0001_RLatLon0.09_PT016H.grib2 2026-04-14 14:44 264K
20260414T12Z_MSC_RDPS_WindU_IsbL-0005_RLatLon0.09_PT016H.grib2 2026-04-14 14:44 300K
20260414T12Z_MSC_RDPS_WindU_IsbL-0010_RLatLon0.09_PT016H.grib2 2026-04-14 14:44 309K
20260414T12Z_MSC_RDPS_WindU_IsbL-0020_RLatLon0.09_PT016H.grib2 2026-04-14 14:44 327K
20260414T12Z_MSC_RDPS_WindU_IsbL-0030_RLatLon0.09_PT016H.grib2 2026-04-14 14:44 332K
20260414T12Z_MSC_RDPS_WindU_IsbL-0050_RLatLon0.09_PT016H.grib2 2026-04-14 14:44 363K
20260414T12Z_MSC_RDPS_WindU_IsbL-0100_RLatLon0.09_PT016H.grib2 2026-04-14 14:44 346K
20260414T12Z_MSC_RDPS_WindU_IsbL-0150_RLatLon0.09_PT016H.grib2 2026-04-14 14:44 391K
20260414T12Z_MSC_RDPS_WindU_IsbL-0175_RLatLon0.09_PT016H.grib2 2026-04-14 14:44 414K
20260414T12Z_MSC_RDPS_WindU_IsbL-0200_RLatLon0.09_PT016H.grib2 2026-04-14 14:44 431K
20260414T12Z_MSC_RDPS_WindU_IsbL-0225_RLatLon0.09_PT016H.grib2 2026-04-14 14:44 338K
20260414T12Z_MSC_RDPS_WindU_IsbL-0250_RLatLon0.09_PT016H.grib2 2026-04-14 14:44 342K
20260414T12Z_MSC_RDPS_WindU_IsbL-0275_RLatLon0.09_PT016H.grib2 2026-04-14 14:44 355K
20260414T12Z_MSC_RDPS_WindU_IsbL-0300_RLatLon0.09_PT016H.grib2 2026-04-14 14:44 352K
20260414T12Z_MSC_RDPS_WindU_IsbL-0350_RLatLon0.09_PT016H.grib2 2026-04-14 14:44 361K
20260414T12Z_MSC_RDPS_WindU_IsbL-0400_RLatLon0.09_PT016H.grib2 2026-04-14 14:44 364K
20260414T12Z_MSC_RDPS_WindU_IsbL-0450_RLatLon0.09_PT016H.grib2 2026-04-14 14:44 467K
20260414T12Z_MSC_RDPS_WindU_IsbL-0500_RLatLon0.09_PT016H.grib2 2026-04-14 14:44 468K
20260414T12Z_MSC_RDPS_WindU_IsbL-0550_RLatLon0.09_PT016H.grib2 2026-04-14 14:44 470K
20260414T12Z_MSC_RDPS_WindU_IsbL-0600_RLatLon0.09_PT016H.grib2 2026-04-14 14:44 480K
20260414T12Z_MSC_RDPS_WindU_IsbL-0650_RLatLon0.09_PT016H.grib2 2026-04-14 14:44 498K
20260414T12Z_MSC_RDPS_WindU_IsbL-0700_RLatLon0.09_PT016H.grib2 2026-04-14 14:44 504K
20260414T12Z_MSC_RDPS_WindU_IsbL-0750_RLatLon0.09_PT016H.grib2 2026-04-14 14:44 531K
20260414T12Z_MSC_RDPS_WindU_IsbL-0800_RLatLon0.09_PT016H.grib2 2026-04-14 14:44 572K
20260414T12Z_MSC_RDPS_WindU_IsbL-0850_RLatLon0.09_PT016H.grib2 2026-04-14 14:44 622K
20260414T12Z_MSC_RDPS_WindU_IsbL-0875_RLatLon0.09_PT016H.grib2 2026-04-14 14:44 637K
20260414T12Z_MSC_RDPS_WindU_IsbL-0900_RLatLon0.09_PT016H.grib2 2026-04-14 14:44 649K
20260414T12Z_MSC_RDPS_WindU_IsbL-0925_RLatLon0.09_PT016H.grib2 2026-04-14 14:44 796K
20260414T12Z_MSC_RDPS_WindU_IsbL-0950_RLatLon0.09_PT016H.grib2 2026-04-14 14:44 795K
20260414T12Z_MSC_RDPS_WindU_IsbL-0970_RLatLon0.09_PT016H.grib2 2026-04-14 14:44 793K
20260414T12Z_MSC_RDPS_WindU_IsbL-0985_RLatLon0.09_PT016H.grib2 2026-04-14 14:44 836K
20260414T12Z_MSC_RDPS_WindU_IsbL-1000_RLatLon0.09_PT016H.grib2 2026-04-14 14:44 829K
20260414T12Z_MSC_RDPS_WindU_IsbL-1015_RLatLon0.09_PT016H.grib2 2026-04-14 14:44 821K
20260414T12Z_MSC_RDPS_WindV_AGL-10m_RLatLon0.09_PT016H.grib2 2026-04-14 14:44 430K
20260414T12Z_MSC_RDPS_WindV_AGL-120m_RLatLon0.09_PT016H.grib2 2026-04-14 14:44 416K
20260414T12Z_MSC_RDPS_WindV_AGL-40m_RLatLon0.09_PT016H.grib2 2026-04-14 14:44 536K
20260414T12Z_MSC_RDPS_WindV_AGL-80m_RLatLon0.09_PT016H.grib2 2026-04-14 14:44 418K
20260414T12Z_MSC_RDPS_WindV_IsbL-0001_RLatLon0.09_PT016H.grib2 2026-04-14 14:44 266K
20260414T12Z_MSC_RDPS_WindV_IsbL-0005_RLatLon0.09_PT016H.grib2 2026-04-14 14:44 235K
20260414T12Z_MSC_RDPS_WindV_IsbL-0010_RLatLon0.09_PT016H.grib2 2026-04-14 14:44 308K
20260414T12Z_MSC_RDPS_WindV_IsbL-0020_RLatLon0.09_PT016H.grib2 2026-04-14 14:44 355K
20260414T12Z_MSC_RDPS_WindV_IsbL-0030_RLatLon0.09_PT016H.grib2 2026-04-14 14:44 361K
20260414T12Z_MSC_RDPS_WindV_IsbL-0050_RLatLon0.09_PT016H.grib2 2026-04-14 14:44 362K
20260414T12Z_MSC_RDPS_WindV_IsbL-0100_RLatLon0.09_PT016H.grib2 2026-04-14 14:44 342K
20260414T12Z_MSC_RDPS_WindV_IsbL-0150_RLatLon0.09_PT016H.grib2 2026-04-14 14:44 389K
20260414T12Z_MSC_RDPS_WindV_IsbL-0175_RLatLon0.09_PT016H.grib2 2026-04-14 14:44 412K
20260414T12Z_MSC_RDPS_WindV_IsbL-0200_RLatLon0.09_PT016H.grib2 2026-04-14 14:44 429K
20260414T12Z_MSC_RDPS_WindV_IsbL-0225_RLatLon0.09_PT016H.grib2 2026-04-14 14:44 337K
20260414T12Z_MSC_RDPS_WindV_IsbL-0250_RLatLon0.09_PT016H.grib2 2026-04-14 14:44 340K
20260414T12Z_MSC_RDPS_WindV_IsbL-0275_RLatLon0.09_PT016H.grib2 2026-04-14 14:44 353K
20260414T12Z_MSC_RDPS_WindV_IsbL-0300_RLatLon0.09_PT016H.grib2 2026-04-14 14:44 349K
20260414T12Z_MSC_RDPS_WindV_IsbL-0350_RLatLon0.09_PT016H.grib2 2026-04-14 14:44 357K
20260414T12Z_MSC_RDPS_WindV_IsbL-0400_RLatLon0.09_PT016H.grib2 2026-04-14 14:44 360K
20260414T12Z_MSC_RDPS_WindV_IsbL-0450_RLatLon0.09_PT016H.grib2 2026-04-14 14:44 465K
20260414T12Z_MSC_RDPS_WindV_IsbL-0500_RLatLon0.09_PT016H.grib2 2026-04-14 14:44 465K
20260414T12Z_MSC_RDPS_WindV_IsbL-0550_RLatLon0.09_PT016H.grib2 2026-04-14 14:44 466K
20260414T12Z_MSC_RDPS_WindV_IsbL-0600_RLatLon0.09_PT016H.grib2 2026-04-14 14:44 476K
20260414T12Z_MSC_RDPS_WindV_IsbL-0650_RLatLon0.09_PT016H.grib2 2026-04-14 14:44 495K
20260414T12Z_MSC_RDPS_WindV_IsbL-0700_RLatLon0.09_PT016H.grib2 2026-04-14 14:44 515K
20260414T12Z_MSC_RDPS_WindV_IsbL-0750_RLatLon0.09_PT016H.grib2 2026-04-14 14:44 526K
20260414T12Z_MSC_RDPS_WindV_IsbL-0800_RLatLon0.09_PT016H.grib2 2026-04-14 14:44 567K
20260414T12Z_MSC_RDPS_WindV_IsbL-0850_RLatLon0.09_PT016H.grib2 2026-04-14 14:44 617K
20260414T12Z_MSC_RDPS_WindV_IsbL-0875_RLatLon0.09_PT016H.grib2 2026-04-14 14:44 634K
20260414T12Z_MSC_RDPS_WindV_IsbL-0900_RLatLon0.09_PT016H.grib2 2026-04-14 14:44 653K
20260414T12Z_MSC_RDPS_WindV_IsbL-0925_RLatLon0.09_PT016H.grib2 2026-04-14 14:44 654K
20260414T12Z_MSC_RDPS_WindV_IsbL-0950_RLatLon0.09_PT016H.grib2 2026-04-14 14:44 654K
20260414T12Z_MSC_RDPS_WindV_IsbL-0970_RLatLon0.09_PT016H.grib2 2026-04-14 14:44 654K
20260414T12Z_MSC_RDPS_WindV_IsbL-0985_RLatLon0.09_PT016H.grib2 2026-04-14 14:44 651K
20260414T12Z_MSC_RDPS_WindV_IsbL-1000_RLatLon0.09_PT016H.grib2 2026-04-14 14:44 786K
20260414T12Z_MSC_RDPS_WindV_IsbL-1015_RLatLon0.09_PT016H.grib2 2026-04-14 14:44 776K